SL-16 DEB, 35420

Orbit data source: Space-Track

SL-16 DEB, 35420 is space debris in SSO originally from a launch on Mon, 10 Dec 2001 UTC launched from the Tyuratam Missile And Space Complex (TTMTR). Debris objects in space refer to the collection of defunct objects orbiting the Earth. Examples of debris include non-operational satellites, rocket bodies, and fragments generated from explosions, collisions, or faulty payload assembly.

Loading next visibility...
SL-16 DEB details
Identifier
35420, 2001-056M
Orbit
SSO
Last TLE update19 hours ago
Origin
Flag of CISRosgidromet (CIS)
ManufacturerUnknown
MissionSpacecraft
Bus & MotorUnknown
MassUnknown
Launch date (UTC)
2001-12-10 (23 years ago)
Launch vehicleUnknown
Launch site
Tyuratam Missile And Space Complex (TTMTR)
Object type
Payload
Rocket body
Debris
Shape & HBRUnknown
Radar Cross SectionSmall (<0.1 m²)

Expand to show TLE details & history

TLE from 19 hours ago
0 SL-16 DEB
1 35420U 01056M   24360.92354685  .00001041  00000-0  10978-2 0  9996
2 35420  99.3882 129.5624 0024371 238.6445 251.3776 13.76959158152679
Epoch: 2024-12-25T22:09Z
Definitive object data (Epoch: 2024-12-25T22:09:54.447Z)
Latitude49.42629°
Longitude-106.75062°
Altitude988.202 km
Speed7.359 km/s
True Right ascension21h 22m 32s
True Declination49° 15' 42"
Sunlit
Object was in daylight at TLE epoch
Visualization TLE readout
Latitude3.97962°
Longitude62.28308°
Altitude987.977 km
Speed7.353 km/s
Apparent Right ascension06h 53m 19s
Apparent Declination-19° 10' 48"
Sunlit
Object is in full shadow
Visualization observer readout
Local Sidereal Time16:06:26
Azimuth287.679° WNW
Elevation-48.72°
Doppler factor1
Orbital elements
Apogee altitude989.854 km
Perigee altitude954.029 km
Semi-major axis7,350.079 km
Eccentricity0.0024371
Inclination99.3882°
RAAN129.5624°
Arg. of periapsis238.6445°
True anomaly251.11321°
Mean anomaly251.3776°
Eccentric anomaly251.24538°
Mean motion3.44433 °/min
BSTAR0.0010978
Orbital period104.52 mins
Loading maneuver chart data...
Loading historical data...
Loading historical data...
Loading historical data...
Loading historical data...
Loading historical data...
Loading historical data...
Loading historical data...

SL-16 DEB Visibility forecast

Observer location: undefined°, undefined

Span
Click to sort rows by Start time (UTC) header in descending order
Start Az.
Max El. time (UTC)
Max El. Az.
Max El.
End time (UTC)
End Az.
9 mins2024-12-26 20:49:13.245Z40.861° NE2024-12-26 20:53:13.245Z90.056° ESE27.328°2024-12-26 20:58:13.245Z153.913° SSE
10 mins2024-12-26 22:32:13.245Z354.636° N2024-12-26 22:37:13.245Z281.968° WNW32.201°2024-12-26 22:42:13.245Z226.592° WSW
10 mins2024-12-27 08:32:13.245Z155.24° SSE2024-12-27 08:37:13.245Z32.115° NE43.405°2024-12-27 08:42:13.245Z349.666° N
5 mins2024-12-27 10:18:13.245Z245.126° WSW2024-12-27 10:20:13.245Z266.585° W15.299°2024-12-27 10:23:13.245Z298.328° NW
|